This demonstration page uses our WeatherBlox Daily Observations layout. Learn more.

Left ArrowRight Arrow

Hourly Observations for September 12, 2015

Temp ( °F °C ) Dew Point ( °F °C ) Humidity (%) Winds ( mph kmh ) Pressure ( in mb ) Visibility ( mi km ) Precip ( " mm )
12:59 am 00:59 Partly Cloudy 73 22.8 67 19.4 81 81 SSE 5 7 29.84 1011 10 16 0.00 0.00
1:59 am 01:59 Partly Cloudy 73 22.8 67 19.4 81 81 SSE 5 7 29.84 1011 10 16 0.00 0.00
2:59 am 02:59 Mostly Cloudy 73 22.8 68 20 84 84 SE 5 7 29.82 1010 10 16 0.00 0.00
3:59 am 03:59 Mostly Cloudy 73 22.8 68 20 84 84 SSE 3 6 29.80 1009 10 16 0.00 0.00
4:59 am 04:59 Mostly Cloudy 74 23.3 68 20 82 82 SE 6 9 29.78 1009 10 16 0.00 0.00
5:59 am 05:59 Mostly Cloudy 74 23.3 69 20.6 85 85 SE 6 9 29.79 1009 10 16 0.00 0.00
6:59 am 06:59 Cloudy 74 23.3 69 20.6 85 85 SSE 5 7 29.79 1009 10 16 0.00 0.00
7:59 am 07:59 Cloudy 76 24.4 70 21.1 82 82 SSE 5 7 29.78 1008 10 16 0.00 0.00
8:33 am 08:33 Cloudy 77 25 71 21.7 82 82 SSE 6 9 29.77 1008 9 14 0.00 0.00
8:59 am 08:59 Mostly Cloudy 78 25.6 72 22.2 82 82 S 6 9 29.76 1008 9 14 0.00 0.00
9:59 am 09:59 Mostly Cloudy 80 26.7 72 22.2 76 76 S 8 13 29.77 1008 8 13 0.00 0.00
10:59 am 10:59 Cloudy 82 27.8 71 21.7 69 69 SSW 10 17 29.77 1008 8 13 0.00 0.00
11:59 am 11:59 Mostly Cloudy 84 28.9 70 21.1 63 63 SW 10 17 29.75 1008 9 14 0.00 0.00
12:59 pm 12:59 Cloudy 85 29.4 69 20.6 59 59 SW 12 19 29.72 1007 9 14 0.00 0.00
1:59 pm 13:59 Cloudy with Light Rain 81 27.2 70 21.1 69 69 SW 9 15 29.70 1006 9 14 0.01 0.25
2:59 pm 14:59 Cloudy 82 27.8 68 20 63 63 SW 12 19 29.68 1005 8 13 0.01 0.25
3:59 pm 15:59 Cloudy 80 26.7 70 21.1 71 71 SW 7 11 29.68 1005 8 13 0.01 0.25
4:59 pm 16:59 Cloudy 81 27.2 70 21.1 69 69 SW 13 20 29.68 1005 7 11 0.00 0.03
5:39 pm 17:39 Cloudy with Thunderstorms 78 25.6 72 22.2 82 82 W 9 15 29.71 1006 7 11 0.00 0.00
5:54 pm 17:54 Cloudy with Thunderstorms 77 25 72 22 83 83 W 21 33 29.71 1006 2 3 0.00 0.03
5:57 pm 17:57 Cloudy with Thunderstorms 75 24 72 22 89 89 WSW 20 31 29.71 1006 1 2 0.00 0.00
5:59 pm 17:59 Cloudy with Thunderstorms 74 23.3 70 21.1 88 88 WSW 17 28 29.70 1006 1 1 0.00 0.00
6:21 pm 18:21 Cloudy with Thunderstorms 72 22.2 68 20 87 87 S 8 13 29.71 1006 4 6 0.00 0.00
6:59 pm 18:59 Cloudy with Mist and Fog 72 22.2 69 20.6 91 91 S 6 9 29.69 1006 7 11 0.00 0.00
7:59 pm 19:59 Cloudy 72 22.2 68 20 87 87 SSW 6 9 29.71 1006 8 13 0.00 0.00
8:59 pm 20:59 Cloudy with Light Rain 73 22.8 69 20.6 87 87 SW 5 7 29.72 1007 8 13 0.00 0.03
9:07 pm 21:07 Cloudy with Thunderstorms 73 22.8 70 21.1 90 90 SSW 3 6 29.71 1006 7 11 0.00 0.03
9:59 pm 21:59 Cloudy with Thunderstorms 71 21.7 67 19.4 87 87 SSW 6 9 29.74 1007 7 11 0.02 0.51
10:09 pm 22:09 Cloudy 70 21.1 67 19.4 90 90 SW 5 7 29.74 1007 10 16 0.00 0.03
10:59 pm 22:59 Cloudy with Rain 70 21.1 67 19.4 90 90 SSW 5 7 29.75 1007 6 10 0.00 0.03
11:59 pm 23:59 Cloudy with Light Rain 70 21.1 67 19.4 90 90 SW 3 6 29.75 1007 7 11 0.04 1.02

Powered by AerisWeather